| time (UTC) | temp C | wind direction | speed KPH | gust KPH | rain 1hr cm | rain 24hr cm | rain mn cm | humidity % | barometer mb |
| 20260901174554 | 16 | 301 | 14.5 | 24.1 | 0.00 | 0.05 | 0.05 | 83 | 1012.8 |
| 20260901173049 | 17 | 288 | 14.5 | 24.1 | 0.00 | 0.05 | 0.05 | 82 | 1012.8 |
| 20260901171548 | 17 | 290 | 12.9 | 25.7 | 0.00 | 0.05 | 0.05 | 82 | 1012.6 |
| 20260901170043 | 17 | 302 | 14.5 | 24.1 | 0.00 | 0.05 | 0.05 | 82 | 1012.4 |
| 20260901164551 | 17 | 295 | 14.5 | 29.0 | 0.00 | 0.05 | 0.05 | 82 | 1012.4 |
| 20260901163041 | 17 | 294 | 16.1 | 22.5 | 0.00 | 0.05 | 0.05 | 81 | 1012.3 |
| 20260901161548 | 17 | 296 | 16.1 | 25.7 | 0.00 | 0.05 | 0.05 | 81 | 1012.2 |
| 20260901160040 | 17 | 299 | 19.3 | 30.6 | 0.00 | 0.05 | 0.05 | 79 | 1012.2 |
| 20260901154541 | 17 | 275 | 17.7 | 33.8 | 0.00 | 0.05 | 0.05 | 78 | 1012.1 |
| 20260901153044 | 18 | 290 | 19.3 | 29.0 | 0.00 | 0.05 | 0.05 | 77 | 1011.9 |
| 20260901151536 | 19 | 309 | 24.1 | 33.8 | 0.00 | 0.05 | 0.05 | 74 | 1011.9 |
| 20260901150036 | 18 | 295 | 20.9 | 27.4 | 0.00 | 0.05 | 0.05 | 78 | 1011.8 |
| 20260901144534 | 18 | 311 | 17.7 | 24.1 | 0.00 | 0.08 | 0.05 | 78 | 1011.8 |
| 20260901143034 | 18 | 309 | 17.7 | 27.4 | 0.00 | 0.08 | 0.05 | 79 | 1011.7 |
| 20260901141536 | 20 | 313 | 16.1 | 27.4 | 0.00 | 0.08 | 0.05 | 79 | 1011.7 |
| 20260901140032 | 20 | 300 | 14.5 | 25.7 | 0.00 | 0.08 | 0.05 | 76 | 1011.5 |
| 20260901134532 | 19 | 268 | 14.5 | 32.2 | 0.00 | 0.08 | 0.05 | 79 | 1011.7 |
| 20260901133031 | 19 | 322 | 19.3 | 29.0 | 0.00 | 0.08 | 0.05 | 77 | 1011.6 |
| 20260901131530 | 20 | 259 | 16.1 | 29.0 | 0.03 | 0.08 | 0.05 | 76 | 1011.3 |
| 20260901130029 | 20 | 283 | 22.5 | 30.6 | 0.03 | 0.08 | 0.05 | 75 | 1011.3 |
| 20260901124528 | 20 | 286 | 14.5 | 24.1 | 0.03 | 0.08 | 0.05 | 75 | 1011.3 |
| 20260901123035 | 19 | 315 | 16.1 | 29.0 | 0.03 | 0.08 | 0.05 | 78 | 1011.2 |
| 20260901121525 | 20 | 301 | 14.5 | 24.1 | 0.00 | 0.05 | 0.03 | 77 | 1011.2 |
| 20260901120024 | 19 | 333 | 17.7 | 25.7 | 0.00 | 0.05 | 0.03 | 80 | 1011.3 |
| 20260901114523 | 20 | 286 | 19.3 | 29.0 | 0.00 | 0.23 | 0.03 | 79 | 1011.1 |
| 20260901113023 | 20 | 284 | 17.7 | 24.1 | 0.00 | 0.23 | 0.03 | 76 | 1011.1 |
| 20260901111521 | 20 | 277 | 14.5 | 25.7 | 0.00 | 0.23 | 0.03 | 80 | 1011.0 |
| 20260901110021 | 20 | 271 | 19.3 | 29.0 | 0.00 | 0.23 | 0.03 | 80 | 1010.9 |
| 20260901104521 | 19 | 244 | 12.9 | 22.5 | 0.00 | 0.33 | 0.03 | 82 | 1010.9 |
| 20260901103012 | 18 | 276 | 19.3 | 29.0 | 0.00 | 0.33 | 0.03 | 84 | 1010.9 |
| 20260901101508 | 17 | 263 | 14.5 | 25.7 | 0.00 | 0.33 | 0.03 | 85 | 1010.8 |
| 20260901100005 | 17 | 286 | 14.5 | 24.1 | 0.00 | 0.33 | 0.03 | 86 | 1010.6 |
| 20260901094506 | 17 | 286 | 12.9 | 24.1 | 0.00 | 0.33 | 0.03 | 88 | 1010.6 |
| 20260901093005 | 17 | 293 | 16.1 | 24.1 | 0.00 | 0.33 | 0.03 | 88 | 1010.6 |
| 20260901091505 | 17 | 278 | 12.9 | 24.1 | 0.00 | 0.33 | 0.03 | 87 | 1010.4 |
| 20260901090100 | 17 | 270 | 14.5 | 22.5 | 0.00 | 0.33 | 0.03 | 90 | 1010.3 |
| 20260901084601 | 16 | 273 | 12.9 | 24.1 | 0.00 | 0.33 | 0.03 | 92 | 1010.4 |
| 20260901083057 | 16 | 274 | 12.9 | 22.5 | 0.00 | 0.33 | 0.03 | 92 | 1010.5 |
| 20260901081555 | 16 | 304 | 11.3 | 17.7 | 0.00 | 0.33 | 0.03 | 94 | 1010.1 |
| 20260901080100 | 16 | 283 | 4.8 | 16.1 | 0.00 | 0.33 | 0.03 | 95 | 1010.0 |
| 20260901074601 | 15 | 291 | 8.0 | 16.1 | 0.00 | 0.33 | 0.03 | 95 | 1009.9 |
| 20260901073050 | 15 | 292 | 11.3 | 17.7 | 0.00 | 0.33 | 0.03 | 96 | 1009.9 |
| 20260901071550 | 15 | 278 | 9.7 | 20.9 | 0.00 | 0.33 | 0.03 | 96 | 1009.8 |
| 20260901070048 | 15 | 267 | 14.5 | 19.3 | 0.00 | 0.33 | 0.03 | 96 | 1009.5 |
| 20260901064546 | 16 | 265 | 11.3 | 19.3 | 0.00 | 0.33 | 0.03 | 96 | 1009.3 |
| 20260901063046 | 15 | 274 | 11.3 | 16.1 | 0.00 | 0.33 | 0.03 | 96 | 1009.2 |
| 20260901061542 | 15 | 272 | 8.0 | 14.5 | 0.00 | 0.33 | 0.03 | 96 | 1009.3 |
| 20260901060037 | 14 | 261 | 8.0 | 14.5 | 0.00 | 0.33 | 0.03 | 96 | 1009.2 |
| 20260901054536 | 14 | 272 | 11.3 | 17.7 | 0.00 | 0.33 | 0.03 | 96 | 1009.2 |
| 20260901053042 | 14 | 269 | 8.0 | 16.1 | 0.00 | 0.33 | 0.03 | 96 | 1009.1 |
| 20260901051549 | 14 | 269 | 9.7 | 16.1 | 0.00 | 0.33 | 0.03 | 96 | 1009.1 |
| 20260901050029 | 14 | 275 | 11.3 | 16.1 | 0.00 | 0.33 | 0.03 | 96 | 1009.0 |
| 20260901044533 | 14 | 264 | 12.9 | 20.9 | 0.00 | 0.33 | 0.03 | 96 | 1008.9 |
| 20260901043030 | 14 | 277 | 11.3 | 17.7 | 0.00 | 0.33 | 0.03 | 96 | 1008.6 |
| 20260901041545 | 13 | 288 | 9.7 | 14.5 | 0.00 | 0.33 | 0.03 | 96 | 1008.6 |
| 20260901040022 | 13 | 271 | 6.4 | 12.9 | 0.00 | 0.33 | 0.03 | 96 | 1008.5 |
| 20260901034522 | 13 | 272 | 6.4 | 14.5 | 0.00 | 0.33 | 0.03 | 96 | 1008.5 |
| 20260901033021 | 13 | 275 | 9.7 | 16.1 | 0.00 | 0.33 | 0.03 | 96 | 1008.3 |
| 20260901031521 | 13 | 259 | 11.3 | 16.1 | 0.00 | 0.33 | 0.03 | 96 | 1008.3 |
| 20260901030119 | 13 | 273 | 11.3 | 17.7 | 0.00 | 0.33 | 0.03 | 96 | 1008.2 |
| 20260901024517 | 13 | 284 | 12.9 | 17.7 | 0.00 | 0.33 | 0.03 | 96 | 1008.1 |
| 20260901023019 | 13 | 280 | 12.9 | 16.1 | 0.00 | 0.33 | 0.03 | 96 | 1008.0 |
| 20260901021517 | 13 | 279 | 11.3 | 16.1 | 0.00 | 0.33 | 0.03 | 96 | 1008.0 |
| 20260901020009 | 13 | 279 | 9.7 | 16.1 | 0.00 | 0.33 | 0.03 | 96 | 1008.0 |
| 20260901014525 | 13 | 267 | 6.4 | 12.9 | 0.00 | 0.33 | 0.03 | 95 | 1007.9 |
| 20260901013006 | 13 | 267 | 6.4 | 11.3 | 0.00 | 0.33 | 0.03 | 95 | 1007.7 |
| 20260901011505 | 12 | 257 | 4.8 | 6.4 | 0.00 | 0.33 | 0.03 | 95 | 1007.6 |
| 20260901010003 | 13 | 248 | 3.2 | 8.0 | 0.00 | 0.33 | 0.03 | 95 | 1007.6 |
| 20260901004503 | 13 | 253 | 3.2 | 6.4 | 0.03 | 0.33 | 0.03 | 95 | 1007.5 |
| 20260901003101 | 13 | 255 | 1.6 | 4.8 | 0.03 | 0.33 | 0.03 | 95 | 1007.4 |
| 20260901001608 | 13 | 265 | 4.8 | 9.7 | 0.03 | 0.33 | 0.03 | 95 | 1007.4 |
| 20260901000106 | 13 | 254 | 3.2 | 6.4 | 0.03 | 0.33 | 0.03 | 95 | 1007.3 |
| 20260831234615 | 13 | 267 | 3.2 | 6.4 | 0.00 | 0.30 | 0.00 | 95 | 1007.3 |
| 20260831233113 | 13 | 248 | 1.6 | 6.4 | 0.00 | 0.30 | 0.00 | 95 | 1007.2 |
| 20260831231554 | 14 | 259 | 1.6 | 6.4 | 0.00 | 0.30 | 0.00 | 95 | 1007.2 |
| 20260831230053 | 14 | 274 | 3.2 | 6.4 | 0.00 | 0.30 | 0.00 | 94 | 1007.1 |
| 20260831224550 | 14 | 234 | 1.6 | 6.4 | 0.00 | 0.30 | 0.00 | 95 | 1006.9 |
| 20260831223048 | 14 | 229 | 0.0 | 3.2 | 0.00 | 0.30 | 0.00 | 94 | 1006.8 |
| 20260831221549 | 14 | 229 | 0.0 | 3.2 | 0.00 | 0.30 | 0.00 | 94 | 1006.9 |
| 20260831220045 | 14 | 229 | 1.6 | 4.8 | 0.00 | 0.30 | 0.00 | 94 | 1006.7 |
| 20260831214546 | 14 | 227 | 1.6 | 4.8 | 0.00 | 0.30 | 0.30 | 94 | 1006.7 |
| 20260831213044 | 15 | 231 | 3.2 | 8.0 | 0.00 | 0.30 | 0.30 | 94 | 1006.5 |
| 20260831211544 | 14 | 211 | 4.8 | 8.0 | 0.00 | 0.30 | 0.30 | 94 | 1006.6 |
| 20260831210046 | 15 | 225 | 3.2 | 6.4 | 0.00 | 0.30 | 0.30 | 94 | 1006.6 |
| 20260831204542 | 15 | 229 | 1.6 | 8.0 | 0.00 | 0.30 | 0.30 | 94 | 1006.6 |
| 20260831203043 | 15 | 227 | 1.6 | 6.4 | 0.00 | 0.30 | 0.30 | 93 | 1006.6 |
| 20260831201547 | 15 | 246 | 0.0 | 6.4 | 0.00 | 0.30 | 0.30 | 93 | 1006.6 |
| 20260831200040 | 15 | 263 | 4.8 | 11.3 | 0.00 | 0.30 | 0.30 | 93 | 1006.5 |
| 20260831194540 | 15 | 223 | 3.2 | 8.0 | 0.00 | 0.30 | 0.30 | 93 | 1006.3 |
| 20260831193040 | 15 | 224 | 3.2 | 8.0 | 0.00 | 0.30 | 0.30 | 93 | 1006.3 |
| 20260831191541 | 15 | 220 | 3.2 | 6.4 | 0.00 | 0.30 | 0.30 | 92 | 1006.1 |
| 20260831190041 | 15 | 219 | 4.8 | 9.7 | 0.00 | 0.30 | 0.30 | 92 | 1006.3 |
| 20260831184539 | 15 | 218 | 6.4 | 9.7 | 0.00 | 0.30 | 0.30 | 92 | 1006.1 |
| 20260831183038 | 15 | 216 | 6.4 | 9.7 | 0.00 | 0.30 | 0.30 | 91 | 1006.0 |
| 20260831181540 | 15 | 210 | 6.4 | 11.3 | 0.00 | 0.30 | 0.30 | 91 | 1005.9 |
| 20260831180035 | 16 | 207 | 4.8 | 11.3 | 0.00 | 0.30 | 0.30 | 90 | 1005.6 |